• In Netherlands
  • List of Countries
  • For 7 days
  • Water Temperature
  • Satellite Maps
  • Weather Map
  • Weather Widgets
  • user-avatar
    Login

    Hourly Weather Kabul

    Today, 18 January, Wednesday

    Time Temperature Precipitation Wind Pressure Humidity
    00:00 -4°C° 0.1 mm 1 mps 605 mmHg 72%
    01:00 -4°C° 0.1 mm 1 mps 605 mmHg 73%
    02:00 -6°C° 0.1 mm 1 mps 605 mmHg 74%
    03:00 -6°C° 0 mm 1 mps 605 mmHg 74%
    04:00 -6°C° 0 mm 1 mps 605 mmHg 75%
    05:00 -7°C° 0 mm 1 mps 605 mmHg 76%
    06:00 -7°C° 0 mm 1 mps 605 mmHg 75%
    07:00 -7°C° 0 mm 1 mps 605 mmHg 74%
    08:00 -7°C° 0 mm 1 mps 606 mmHg 73%
    09:00 -4°C° 0 mm 1 mps 607 mmHg 67%
    10:00 -2°C° 0 mm 1 mps 608 mmHg 60%
    11:00 0°C° 0 mm 1 mps 609 mmHg 54%
    12:00 +1°C° 0 mm 1 mps 609 mmHg 53%
    13:00 +1°C° 0 mm 1 mps 609 mmHg 51%
    14:00 +2°C° 0 mm 1 mps 609 mmHg 50%
    15:00 +1°C° 0 mm 1 mps 608 mmHg 52%
    16:00 0°C° 0 mm 1 mps 608 mmHg 55%
    17:00 0°C° 0 mm 1 mps 608 mmHg 57%
    18:00 -2°C° 0 mm 1 mps 608 mmHg 61%
    19:00 -4°C° 0 mm 1 mps 607 mmHg 65%
    20:00 -7°C° 0 mm 0 mps 607 mmHg 69%
    21:00 -7°C° 0 mm 0 mps 607 mmHg 70%
    22:00 -8°C° 0 mm 1 mps 607 mmHg 70%
    23:00 -8°C° 0 mm 1 mps 607 mmHg 71%

    Tomorrow, 19 January, Thursday

    Time Temperature Precipitation Wind Pressure Humidity
    00:00 -8°C° 0 mm 1 mps 607 mmHg 71%
    01:00 -9°C° 0 mm 1 mps 607 mmHg 72%
    02:00 -9°C° 0 mm 1 mps 606 mmHg 72%
    03:00 -9°C° 0 mm 1 mps 606 mmHg 72%
    04:00 -10°C° 0 mm 1 mps 606 mmHg 72%
    05:00 -10°C° 0 mm 1 mps 606 mmHg 72%
    06:00 -10°C° 0 mm 1 mps 606 mmHg 70%
    07:00 -9°C° 0 mm 1 mps 607 mmHg 68%
    08:00 -9°C° 0 mm 1 mps 607 mmHg 66%
    09:00 -6°C° 0 mm 1 mps 608 mmHg 58%
    10:00 -2°C° 0 mm 1 mps 610 mmHg 49%
    11:00 +1°C° 0 mm 1 mps 611 mmHg 40%
    12:00 +2°C° 0 mm 1 mps 611 mmHg 39%
    13:00 +2°C° 0 mm 1 mps 610 mmHg 37%
    14:00 +3°C° 0 mm 1 mps 610 mmHg 36%
    15:00 +2°C° 0 mm 1 mps 610 mmHg 39%
    16:00 0°C° 0 mm 1 mps 609 mmHg 42%
    17:00 -1°C° 0 mm 1 mps 608 mmHg 45%
    18:00 -3°C° 0 mm 1 mps 608 mmHg 48%
    19:00 -4°C° 0 mm 1 mps 608 mmHg 51%
    20:00 -7°C° 0 mm 1 mps 608 mmHg 55%
    21:00 -7°C° 0 mm 1 mps 608 mmHg 55%
    22:00 -8°C° 0 mm 1 mps 608 mmHg 55%
    23:00 -8°C° 0 mm 1 mps 608 mmHg 55%

    Day after tomorrow, 20 January, Friday

    Time Temperature Precipitation Wind Pressure Humidity
    00:00 -8°C° 0 mm 1 mps 607 mmHg 55%
    01:00 -8°C° 0 mm 1 mps 607 mmHg 55%
    02:00 -8°C° 0 mm 1 mps 607 mmHg 55%
    03:00 -9°C° 0 mm 1 mps 607 mmHg 54%
    04:00 -9°C° 0 mm 1 mps 606 mmHg 54%
    05:00 -9°C° 0 mm 1 mps 606 mmHg 54%
    06:00 -8°C° 0 mm 1 mps 606 mmHg 53%
    07:00 -8°C° 0 mm 1 mps 607 mmHg 51%
    08:00 -8°C° 0 mm 1 mps 607 mmHg 50%
    09:00 -4°C° 0 mm 1 mps 608 mmHg 44%
    10:00 -1°C° 0 mm 1 mps 609 mmHg 38%
    11:00 +3°C° 0 mm 1 mps 611 mmHg 32%
    12:00 +3°C° 0 mm 1 mps 610 mmHg 32%
    13:00 +4°C° 0 mm 1 mps 610 mmHg 31%
    14:00 +4°C° 0 mm 1 mps 609 mmHg 31%
    15:00 +3°C° 0 mm 1 mps 609 mmHg 34%
    16:00 +2°C° 0 mm 1 mps 608 mmHg 36%
    17:00 +1°C° 0 mm 1 mps 607 mmHg 39%
    18:00 0°C° 0 mm 1 mps 607 mmHg 41%
    19:00 -2°C° 0 mm 1 mps 607 mmHg 43%
    20:00 -3°C° 0 mm 1 mps 607 mmHg 45%
    21:00 -3°C° 0 mm 1 mps 607 mmHg 45%
    22:00 -3°C° 0 mm 1 mps 607 mmHg 45%
    23:00 -4°C° 0 mm 1 mps 607 mmHg 45%

    21 January, Saturday

    Time Temperature Precipitation Wind Pressure Humidity
    00:00 -4°C° 0 mm 1 mps 607 mmHg 46%
    01:00 -4°C° 0 mm 1 mps 607 mmHg 48%
    02:00 -4°C° 0 mm 1 mps 607 mmHg 49%
    03:00 -4°C° 0 mm 1 mps 607 mmHg 52%
    04:00 -6°C° 0 mm 1 mps 606 mmHg 54%
    05:00 -6°C° 0 mm 1 mps 606 mmHg 57%
    06:00 -6°C° 0 mm 1 mps 606 mmHg 58%
    07:00 -4°C° 0 mm 1 mps 607 mmHg 58%
    08:00 -4°C° 0 mm 1 mps 607 mmHg 59%
    09:00 -2°C° 0 mm 1 mps 608 mmHg 56%
    10:00 0°C° 0 mm 1 mps 609 mmHg 52%
    11:00 +1°C° 0 mm 2 mps 610 mmHg 49%
    12:00 +2°C° 0 mm 2 mps 610 mmHg 49%
    13:00 +3°C° 0 mm 2 mps 609 mmHg 48%
    14:00 +3°C° 0 mm 2 mps 609 mmHg 48%
    15:00 +3°C° 0 mm 2 mps 609 mmHg 49%
    16:00 +2°C° 0 mm 2 mps 609 mmHg 51%
    17:00 +1°C° 0 mm 2 mps 608 mmHg 53%
    18:00 -1°C° 0 mm 2 mps 609 mmHg 56%
    19:00 -2°C° 0 mm 2 mps 609 mmHg 59%
    20:00 -2°C° 0 mm 1 mps 609 mmHg 62%
    21:00 -4°C° 0 mm 2 mps 609 mmHg 63%
    22:00 -4°C° 0 mm 2 mps 609 mmHg 63%
    23:00 -4°C° 0 mm 2 mps 609 mmHg 64%

    22 January, Sunday

    Time Temperature Precipitation Wind Pressure Humidity
    00:00 -4°C° 0 mm 2 mps 609 mmHg 65%
    01:00 -4°C° 0 mm 2 mps 609 mmHg 66%
    02:00 -4°C° 0 mm 2 mps 609 mmHg 66%
    03:00 -4°C° 0 mm 2 mps 609 mmHg 67%
    04:00 -5°C° 0 mm 2 mps 608 mmHg 69%
    05:00 -5°C° 0 mm 2 mps 608 mmHg 70%
    06:00 -5°C° 0 mm 2 mps 608 mmHg 69%
    07:00 -5°C° 0 mm 2 mps 609 mmHg 69%
    08:00 -4°C° 0 mm 2 mps 609 mmHg 69%
    09:00 -3°C° 0 mm 2 mps 610 mmHg 63%
    10:00 -1°C° 0 mm 2 mps 610 mmHg 58%
    11:00 +2°C° 0 mm 2 mps 611 mmHg 53%
    12:00 +2°C° 0 mm 2 mps 610 mmHg 52%
    13:00 +3°C° 0 mm 2 mps 610 mmHg 51%
    14:00 +3°C° 0 mm 2 mps 609 mmHg 49%
    15:00 +3°C° 0 mm 2 mps 609 mmHg 51%
    16:00 +2°C° 0 mm 2 mps 609 mmHg 52%
    17:00 +1°C° 0 mm 2 mps 608 mmHg 53%
    18:00 -1°C° 0 mm 2 mps 608 mmHg 55%
    19:00 -2°C° 0 mm 2 mps 608 mmHg 58%
    20:00 -3°C° 0 mm 2 mps 608 mmHg 60%
    21:00 -3°C° 0 mm 2 mps 609 mmHg 60%
    22:00 -3°C° 0 mm 2 mps 609 mmHg 60%
    23:00 -3°C° 0 mm 2 mps 609 mmHg 60%

    23 January, Monday

    Time Temperature Precipitation Wind Pressure Humidity
    00:00 -3°C° 0.2 mm 2 mps 609 mmHg 64%
    01:00 -3°C° 0.2 mm 2 mps 609 mmHg 67%
    02:00 -3°C° 0.2 mm 2 mps 609 mmHg 71%
    03:00 -3°C° 0.2 mm 2 mps 608 mmHg 74%
    04:00 -4°C° 0.2 mm 2 mps 608 mmHg 76%
    05:00 -4°C° 0.2 mm 2 mps 608 mmHg 79%
    06:00 -4°C° 0 mm 2 mps 608 mmHg 80%
    07:00 -3°C° 0 mm 1 mps 608 mmHg 81%
    08:00 -3°C° 0 mm 1 mps 608 mmHg 82%
    09:00 -1°C° 0 mm 1 mps 609 mmHg 75%
    10:00 -2°C° 0 mm 2 mps 610 mmHg 68%
    11:00 +1°C° 0 mm 2 mps 610 mmHg 61%
    12:00 +2°C° 0 mm 2 mps 610 mmHg 59%
    13:00 +3°C° 0 mm 2 mps 609 mmHg 57%
    14:00 +3°C° 0 mm 2 mps 609 mmHg 55%
    15:00 +3°C° 0 mm 2 mps 608 mmHg 57%
    16:00 +3°C° 0 mm 2 mps 608 mmHg 59%
    17:00 +2°C° 0 mm 2 mps 608 mmHg 60%
    18:00 +1°C° 0.1 mm 2 mps 608 mmHg 63%
    19:00 -1°C° 0.1 mm 2 mps 608 mmHg 66%
    20:00 -2°C° 0.1 mm 2 mps 608 mmHg 69%
    21:00 -2°C° 0.1 mm 2 mps 608 mmHg 70%
    22:00 -2°C° 0.1 mm 2 mps 608 mmHg 72%
    23:00 -2°C° 0.1 mm 2 mps 608 mmHg 74%
    Show more